Leadville, CO

7:33 AM MST on February 22, 2018 (GMT -0700)
Lake County

Weather History for KLXV - January, 2013

Change the Weather History Date:

Thursday, January 10, 2013

  Actual Average Record
Temperature  
Mean Temperature 21 °F -  
Max Temperature 35 °F 30 °F 48 °F (1986)
Min Temperature 6 °F 4 °F -11 °F (2011)
Degree Days  
Heating Degree Days 44 48  
Month to date heating degree days 514 480  
Since 1 July heating degree days 5048 5381  
Cooling Degree Days 0 0  
Month to date cooling degree days 0 0  
Year to date cooling degree days 0 0  
Moisture  
Dew Point 1 °F    
Average Humidity 45    
Maximum Humidity 70    
Minimum Humidity 19    
Precipitation  
Precipitation 0.00 in 0.02 in 0.30 in (2014)
Month to date precipitation 0.00 0.21  
Year to date precipitation 0.00 0.21  
Sea Level Pressure  
Sea Level Pressure 29.76 in    
Wind  
Wind Speed 3 mph (South)    
Max Wind Speed 14 mph    
Max Gust Speed 20 mph    
Visibility 10 miles    
Events      
T = Trace of Precipitation, MM = Missing Value Source: NWS Daily Summary

Daily Weather History Graph

Daily Weather History Graph

Search for Another Location

Airport or City:

Trip Planner

Search our weather history database for the weather conditions in past years. The results will help you decide how hot, cold, wet, or windy it might be!

Date:

Astronomy

Jan. 10, 2013 Rise Set
Actual Time 7:24 AM MST 5:01 PM MST
Civil Twilight 6:54 AM MST 5:31 PM MST
Nautical Twilight 6:21 AM MST 6:04 PM MST
Astronomical Twilight 5:49 AM MST 6:36 PM MST
Moon 6:06 AM MST (1/10) 4:12 PM MST (1/10)
Length of Visible Light 10h 36m
Length of Day
9h 37m
Waning Crescent, 2% of the Moon is Illuminated
Jan 10
Waning Crescent
Jan 11
New
Jan 18
First Quarter
Jan 26
Full
Feb 3
Last Quarter

Hourly Weather History & Observations

Time (MST) Temp. Windchill Dew Point Humidity Pressure Visibility Wind Dir Wind Speed Gust Speed Precip Events Conditions
12:53 AM 15.1 °F 9.4 °F -0.0 °F 51% 30.04 in 10.0 mi NE 3.5 mph - N/A   Clear
1:53 AM 16.0 °F - 1.0 °F 52% 29.99 in 10.0 mi Calm Calm - N/A   Clear
2:53 AM 14.0 °F - -0.9 °F 52% 29.95 in 10.0 mi Calm Calm - N/A   Clear
3:53 AM 9.0 °F - -0.9 °F 64% 29.94 in 10.0 mi Calm Calm - N/A   Clear
4:53 AM 10.0 °F - -0.9 °F 61% 29.96 in 10.0 mi Calm Calm - N/A   Clear
5:53 AM 8.1 °F - -0.9 °F 67% 29.96 in 10.0 mi Calm Calm - N/A   Clear
6:53 AM 10.9 °F 1.4 °F -2.0 °F 56% 29.94 in 10.0 mi NE 5.8 mph - N/A   Clear
7:53 AM 10.0 °F - -2.9 °F 56% 29.92 in 10.0 mi Calm Calm - N/A   Clear
8:53 AM 14.0 °F - -0.0 °F 54% 29.90 in 10.0 mi Calm Calm - N/A   Clear
9:53 AM 21.0 °F - 1.0 °F 42% 29.84 in 10.0 mi Calm Calm - N/A   Clear
10:53 AM 21.9 °F - 1.0 °F 40% 29.83 in 10.0 mi Calm Calm - N/A   Clear
11:53 AM 28.9 °F 23.9 °F 3.0 °F 33% 29.74 in 10.0 mi WNW 4.6 mph - N/A   Clear
12:53 PM 30.0 °F - 1.9 °F 30% 29.69 in 10.0 mi Calm Calm - N/A   Clear
1:53 PM 34.0 °F 27.2 °F -5.1 °F 19% 29.62 in 10.0 mi SSE 8.1 mph - N/A   Clear
2:53 PM 33.1 °F 26.1 °F -0.9 °F 23% 29.62 in 10.0 mi SSW 8.1 mph - N/A   Clear
3:53 PM 34.0 °F 31.0 °F -2.9 °F 21% 29.62 in 10.0 mi Variable 3.5 mph - N/A   Scattered Clouds
4:53 PM 26.1 °F 17.6 °F 1.9 °F 35% 29.66 in 10.0 mi SSE 8.1 mph - N/A   Clear
5:53 PM 28.0 °F 20.0 °F 1.9 °F 33% 29.65 in 10.0 mi South 8.1 mph - N/A   Clear
6:53 PM 21.9 °F 17.2 °F 3.0 °F 44% 29.64 in 10.0 mi Variable 3.5 mph - N/A   Clear
7:53 PM 23.0 °F - 3.0 °F 42% 29.63 in 10.0 mi Calm Calm - N/A   Mostly Cloudy
8:53 PM 21.0 °F 11.4 °F 3.9 °F 48% 29.60 in 10.0 mi South 8.1 mph - N/A   Overcast
9:53 PM 16.0 °F 7.4 °F 3.9 °F 59% 29.53 in 10.0 mi West 5.8 mph - N/A   Clear
10:53 PM 12.9 °F - 5.0 °F 71% 29.53 in 10.0 mi Calm Calm - N/A   Mostly Cloudy
11:53 PM 14.0 °F - 6.1 °F 71% 29.43 in 10.0 mi Calm Calm - N/A   Overcast